[[{"header":{"parameterUnit":"m.s-1","parameterCategory":1,"la1":30.2991,"la2":30.254,"lo1":-89.0895,"lo2":-89.0444,"dx":0.0017,"dy":0.0017,"nx":28,"ny":28,"refTime":"2022-12-15T09:00:00:Z","depth":0,"parameterNumber":2,"parameterNumberName":"U-component_of_WINDS"},"data":[0,0,0,0,0,0,0,0,0,0,0,0,0,0,0,0,0,0,0,0,0,0,0,0,0,0,0,0,0,0,0,0,0,0,0,0,0,0,0,0,0,0,0,0,0,0,0,0,0,0,0,0,0,0,0,0,0,0,2.5012,2.5013,0,2.5056,2.5057,2.5057,2.5016,2.5014,2.5013,2.5011,2.5055,2.5058,2.506,0,0,0,0,0,0,0,0,0,0,0,0,0,2.4893,2.4896,2.5012,2.5013,2.5014,2.5056,2.5057,2.5057,2.5016,2.5014,2.5012,2.501,2.5054,2.5057,2.5061,0,0,0,0,0,0,0,0,0,0,0,0,0,2.4942,2.4896,2.5012,2.4998,2.4997,2.5056,2.5057,2.5057,2.5017,2.5014,2.5012,2.5009,2.5053,2.5057,2.5061,2.5135,0,0,2.5073,2.5075,0,0,0,0,0,0,0,0,2.4939,2.4946,2.5,2.4999,2.4999,2.5028,2.5031,2.5083,2.5017,2.5009,2.5011,2.5008,2.5048,2.5052,2.5066,2.5137,2.5139,2.5074,2.5076,2.5078,2.5079,0,0,0,0,0,0,0,2.4936,2.4944,2.503,2.5001,2.5,2.499,2.4994,2.504,2.5042,2.501,2.5007,2.5013,2.5047,2.5062,2.5067,2.514,2.5074,2.5077,2.508,2.5081,2.5274,2.5276,0,0,0,0,0,0,2.4934,2.4942,2.5028,2.5031,2.4962,2.4994,2.4998,2.5021,2.5041,2.5042,2.5015,2.5011,2.5056,2.5062,2.5068,2.5155,2.5078,2.5082,2.5084,2.5271,2.5274,2.5277,0,0,0,0,0,0,2.4932,2.4942,2.5026,2.4986,2.4995,2.4998,2.5024,2.5023,2.5038,2.5045,2.5045,2.503,2.5055,2.5062,2.5119,2.5156,2.5084,2.5087,2.5268,2.5272,2.5276,2.5332,0,0,0,0,0,0,2.4928,2.4941,2.497,2.4986,2.4998,2.5077,2.5027,2.5026,2.5045,2.504,2.5059,2.506,2.5053,2.5113,2.5123,2.5161,2.509,2.5265,2.527,2.5275,2.5326,2.5337,2.5346,0,0,0,0,0,2.4924,2.4984,2.4971,2.4982,2.5033,2.5079,2.5086,2.5077,2.5048,2.5077,2.5081,2.5059,2.5151,2.5119,2.513,2.517,2.5262,2.5268,2.5274,2.5322,2.5335,2.5346,0,0,0,0,0,0,2.4971,2.4986,2.4972,2.5039,2.5058,2.5072,2.5108,2.5091,2.5119,2.5113,2.5101,2.5106,2.5165,2.5173,2.5137,2.5242,2.5202,2.521,2.5235,2.5247,2.5257,2.5253,2.5094,0,0,0,0,0,2.4989,2.5026,2.5036,2.5094,2.5105,2.5105,2.5124,2.5116,2.5135,2.5143,2.5152,2.5171,2.5204,2.5226,2.5257,2.5328,2.5331,2.5361,2.537,2.5379,2.5386,2.5423,2.5436,2.5297,2.5297,2.5297,0,0,2.5027,2.504,2.5063,2.5104,2.5118,2.5155,2.5112,2.5153,2.5181,2.5149,2.5203,2.521,2.5231,2.5295,2.5323,2.5303,2.5425,2.5386,2.5393,2.5395,2.543,2.5443,2.5455,2.5301,2.5301,2.53,0,0,2.5115,2.5128,2.5178,2.5193,2.5214,2.5214,2.5226,2.5243,2.5246,2.53,2.5277,2.531,2.5368,2.5383,2.5398,2.5493,2.5473,2.5503,2.5554,2.5591,2.5602,2.5611,2.5644,2.5656,2.5511,2.5511,2.5511,0,2.5159,2.5214,2.5205,2.5248,2.5266,2.5241,2.529,2.5305,2.5336,2.5349,2.5326,2.5398,2.541,2.5477,2.55,2.5514,2.5526,2.55,2.5601,2.5611,2.5619,2.565,2.5663,2.5514,2.5514,2.5513,2.5513,0,2.5267,2.5306,2.5343,2.5374,2.5396,2.5443,2.544,2.5464,2.5454,2.5456,2.5511,2.5525,2.5558,2.5574,2.5565,2.5639,2.5626,2.5603,2.5562,2.5636,2.5665,2.5677,2.5519,2.5518,2.5517,2.5516,0,0,2.5384,2.5409,2.5423,2.5436,2.5459,2.5488,2.5534,2.5566,2.5587,2.5609,2.5646,2.5696,2.5674,2.5692,2.5684,2.5716,2.5789,2.5689,2.5689,2.5706,2.5871,2.5887,2.5901,2.5777,2.5779,2.5781,2.5869,0,2.5472,2.555,2.5543,2.5617,2.5652,2.5629,2.5668,2.5686,2.5689,2.5719,2.5723,2.5758,2.5727,2.5738,2.5769,2.5773,2.5822,2.5767,2.581,2.5812,2.5804,2.5916,2.5934,2.6016,2.588,2.5882,2.5883,0,2.5584,2.561,2.5688,2.5704,2.5719,2.5754,2.5783,2.5813,2.5833,2.5833,2.5853,2.584,2.5885,2.5844,2.5906,2.5869,2.5886,2.5891,2.5894,2.5897,2.5851,2.5921,2.6042,2.6054,2.5901,2.59,2.5898,0,2.566,2.5715,2.5769,2.5781,2.5802,2.5827,2.5837,2.5855,2.5874,2.59,2.5913,2.5944,2.596,2.5984,2.5979,2.595,2.6042,2.6001,2.6042,2.6043,2.6061,2.606,2.6186,2.6075,2.6075,2.6075,2.6075,0,2.5758,2.5806,2.5803,2.5836,2.5889,2.5881,2.5933,2.594,2.5956,2.5989,2.5971,2.6002,2.5995,2.6027,2.6024,2.6074,2.6082,2.6083,2.6082,2.6084,2.6084,2.6094,2.6088,2.6078,2.6077,2.6077,2.6076,0,2.5852,2.5852,2.5908,2.5924,2.5929,2.5967,2.598,2.6011,2.6013,2.6055,2.6065,2.6068,2.6104,2.6102,2.6143,2.6141,2.6203,2.6196,2.6197,2.6194,2.6236,2.6231,2.6372,2.6389,2.6268,2.6269,2.627,0,2.5914,2.595,2.5969,2.599,2.6002,2.6036,2.6056,2.605,2.6072,2.6097,2.6125,2.6159,2.6186,2.6245,2.625,2.6281,2.6273,2.6321,2.6278,2.6279,2.6273,2.627,2.6273,2.6329,2.633,2.6331,2.6332,0,2.6023,2.6021,2.6051,2.6081,2.6106,2.6129,2.615,2.6169,2.6164,2.619,2.6226,2.6248,2.6289,2.6323,2.6353,2.6363,2.6347,2.6346,2.6357,2.6359,2.6357,2.6357,2.6218,2.6342,2.6341,2.634,2.634,2.6339,2.6101,2.6132,2.6151,2.6184,2.62,2.622,2.625,2.6256,2.6286,2.6319,2.6314,2.6355,2.6373,2.6412,2.6425,2.6456,2.6439,2.6455,2.6459,2.6463,2.6467,2.6354,2.6462,2.6461,2.6461,2.6461,2.6461,0,2.6208,2.6219,2.625,2.6281,2.6307,2.6291,2.6313,2.6337,2.6373,2.6392,2.6419,2.646,2.6494,2.6502,2.6534,2.6558,2.6551,2.6566,2.6563,2.6566,2.6481,2.6468,2.6571,2.6571,2.6571,2.6571,2.6571,2.6571,2.6267,2.6318,2.6319,2.6377,2.6387,2.6427,2.6442,2.646,2.6475,2.6523,2.655,2.6556,2.657,2.6603,2.6632,2.6634,2.6646,2.6664,2.6663,2.6583,2.6572,2.6561,2.6548,2.6667,2.6667,2.6744,2.6745,2.6746]},{"header":{"parameterUnit":"m.s-1","parameterCategory":1,"la1":30.2991,"la2":30.254,"lo1":-89.0895,"lo2":-89.0444,"dx":0.0017,"dy":0.0017,"nx":28,"ny":28,"refTime":"2022-12-15T09:00:00:Z","depth":0,"parameterNumber":3,"parameterNumberName":"V-component_of_WINDS"},"data":[0,0,0,0,0,0,0,0,0,0,0,0,0,0,0,0,0,0,0,0,0,0,0,0,0,0,0,0,0,0,0,0,0,0,0,0,0,0,0,0,0,0,0,0,0,0,0,0,0,0,0,0,0,0,0,0,0,0,-2.2431,-2.2433,0,-2.256,-2.2562,-2.2563,-2.257,-2.2568,-2.2567,-2.2566,-2.2698,-2.2702,-2.2707,0,0,0,0,0,0,0,0,0,0,0,0,0,-2.2191,-2.2195,-2.2431,-2.2433,-2.2435,-2.256,-2.2562,-2.2564,-2.257,-2.2568,-2.2567,-2.2565,-2.2696,-2.2702,-2.2708,0,0,0,0,0,0,0,0,0,0,0,0,0,-2.2305,-2.2196,-2.2431,-2.2453,-2.2456,-2.256,-2.2562,-2.2564,-2.2571,-2.2568,-2.2566,-2.2564,-2.2694,-2.2701,-2.2709,-2.2799,0,0,-2.2731,-2.2734,0,0,0,0,0,0,0,0,-2.2298,-2.2314,-2.2448,-2.2452,-2.2455,-2.2547,-2.2526,-2.2643,-2.2571,-2.2527,-2.2565,-2.2563,-2.2649,-2.266,-2.2689,-2.2805,-2.2811,-2.2732,-2.2736,-2.2739,-2.2741,0,0,0,0,0,0,0,-2.2291,-2.2308,-2.2482,-2.245,-2.2455,-2.2456,-2.247,-2.2548,-2.2599,-2.2531,-2.2532,-2.2547,-2.2651,-2.2682,-2.2692,-2.2813,-2.2732,-2.2738,-2.2743,-2.2745,-2.301,-2.3012,0,0,0,0,0,0,-2.2278,-2.2302,-2.2478,-2.2486,-2.237,-2.2462,-2.2478,-2.252,-2.2598,-2.2608,-2.2549,-2.2547,-2.2671,-2.2684,-2.2697,-2.2808,-2.2739,-2.2746,-2.275,-2.3007,-2.301,-2.3013,0,0,0,0,0,0,-2.2273,-2.2294,-2.2473,-2.2394,-2.2417,-2.2469,-2.2516,-2.2523,-2.2555,-2.2612,-2.2621,-2.2571,-2.2669,-2.2687,-2.2774,-2.2813,-2.275,-2.2756,-2.3004,-2.3008,-2.3012,-2.3031,0,0,0,0,0,0,-2.2266,-2.2292,-2.2327,-2.2395,-2.2421,-2.2547,-2.2518,-2.2528,-2.2568,-2.2566,-2.2635,-2.2645,-2.2669,-2.2763,-2.2781,-2.2822,-2.2762,-2.3001,-2.3006,-2.301,-2.3027,-2.3035,-2.3042,0,0,0,0,0,-2.2258,-2.2327,-2.2329,-2.235,-2.2466,-2.255,-2.2565,-2.2591,-2.2571,-2.2606,-2.2643,-2.2643,-2.2806,-2.2771,-2.2792,-2.2836,-2.2998,-2.3004,-2.301,-2.3024,-2.3033,-2.3042,0,0,0,0,0,0,-2.2263,-2.2337,-2.2339,-2.2433,-2.2485,-2.2551,-2.2596,-2.2601,-2.266,-2.2656,-2.2686,-2.2702,-2.2788,-2.2821,-2.2781,-2.2928,-2.29,-2.291,-2.2903,-2.2913,-2.292,-2.291,-2.2768,0,0,0,0,0,-2.2275,-2.2337,-2.2398,-2.2475,-2.2501,-2.2544,-2.2581,-2.2597,-2.2653,-2.2675,-2.2718,-2.2771,-2.2834,-2.2875,-2.2937,-2.3032,-2.3047,-2.3072,-2.308,-2.3085,-2.3094,-2.3146,-2.3158,-2.3032,-2.3032,-2.3032,0,0,-2.23,-2.2348,-2.2386,-2.2477,-2.2519,-2.2582,-2.2563,-2.263,-2.2677,-2.2685,-2.2769,-2.2803,-2.2865,-2.2956,-2.2998,-2.2986,-2.3132,-2.3093,-2.3097,-2.3102,-2.3154,-2.3165,-2.3176,-2.3036,-2.3035,-2.3035,0,0,-2.2379,-2.2422,-2.249,-2.2533,-2.2597,-2.2626,-2.2642,-2.2707,-2.273,-2.2815,-2.2822,-2.2879,-2.2987,-2.3031,-2.3067,-2.3163,-2.3165,-2.3182,-2.3221,-2.3271,-2.3281,-2.329,-2.3324,-2.3336,-2.319,-2.319,-2.319,0,-2.2403,-2.2498,-2.2525,-2.2593,-2.2633,-2.2643,-2.2712,-2.2753,-2.2833,-2.2861,-2.2846,-2.2982,-2.3024,-2.3126,-2.3149,-2.3179,-2.3198,-2.3174,-2.3278,-2.3287,-2.3296,-2.3328,-2.3341,-2.3192,-2.3192,-2.3192,-2.3191,0,-2.2524,-2.259,-2.2638,-2.2716,-2.2761,-2.2829,-2.2867,-2.291,-2.2922,-2.2951,-2.3038,-2.309,-2.3161,-2.3187,-2.3199,-2.329,-2.3281,-2.3271,-2.3244,-2.3309,-2.334,-2.3353,-2.3194,-2.3194,-2.3193,-2.3193,0,0,-2.2609,-2.2701,-2.2718,-2.2753,-2.2825,-2.2877,-2.2946,-2.3016,-2.3052,-2.3108,-2.3166,-2.3258,-2.325,-2.3291,-2.3308,-2.3353,-2.3425,-2.3339,-2.334,-2.3353,-2.3529,-2.3535,-2.3549,-2.3427,-2.343,-2.3432,-2.3523,0,-2.2696,-2.2818,-2.2844,-2.295,-2.3011,-2.3022,-2.3082,-2.3132,-2.3162,-2.3218,-2.3251,-2.3316,-2.33,-2.3325,-2.337,-2.3407,-2.3461,-2.3401,-2.3482,-2.3484,-2.3465,-2.3565,-2.3572,-2.3656,-2.3536,-2.3538,-2.3539,0,-2.2813,-2.2871,-2.2982,-2.3046,-2.3073,-2.3126,-2.3192,-2.3246,-2.3304,-2.3322,-2.3369,-2.3381,-2.3453,-2.3423,-2.3522,-2.3481,-2.3516,-2.3539,-2.3543,-2.3551,-2.3515,-2.3576,-2.3683,-2.3696,-2.3559,-2.3557,-2.3556,0,-2.2863,-2.2969,-2.305,-2.308,-2.3156,-2.3193,-2.3227,-2.3282,-2.3323,-2.3381,-2.3407,-2.3473,-2.3509,-2.356,-2.359,-2.3565,-2.3688,-2.3659,-2.3705,-2.3704,-2.373,-2.3728,-2.3844,-2.3753,-2.3753,-2.3753,-2.3752,0,-2.2957,-2.3024,-2.3074,-2.3123,-2.32,-2.3229,-2.3304,-2.3337,-2.3387,-2.3443,-2.3456,-2.3508,-2.3545,-2.3603,-2.3627,-2.3706,-2.3722,-2.3739,-2.3745,-2.3738,-2.3736,-2.3761,-2.3756,-2.3756,-2.3755,-2.3755,-2.3754,0,-2.3026,-2.3062,-2.315,-2.3215,-2.3232,-2.3286,-2.3341,-2.339,-2.342,-2.3491,-2.3509,-2.3557,-2.3625,-2.3661,-2.3747,-2.3763,-2.3851,-2.3854,-2.3832,-2.3834,-2.3878,-2.3873,-2.4014,-2.4034,-2.3929,-2.393,-2.3931,0,-2.3083,-2.3135,-2.3205,-2.3244,-2.3278,-2.334,-2.3381,-2.3413,-2.3455,-2.3525,-2.3565,-2.3634,-2.3691,-2.3801,-2.3843,-2.3908,-2.3912,-2.3957,-2.3922,-2.3914,-2.3913,-2.3909,-2.3914,-2.3963,-2.3964,-2.3965,-2.3966,0,-2.318,-2.3195,-2.3254,-2.332,-2.3369,-2.3422,-2.3474,-2.3505,-2.3545,-2.3592,-2.3663,-2.3707,-2.3794,-2.3863,-2.3932,-2.3967,-2.3973,-2.3976,-2.399,-2.3984,-2.3969,-2.3977,-2.3848,-2.3973,-2.3972,-2.3972,-2.3971,-2.3971,-2.3245,-2.3292,-2.3349,-2.3414,-2.3457,-2.3505,-2.3554,-2.359,-2.3649,-2.3723,-2.3738,-2.3812,-2.3869,-2.3962,-2.3998,-2.4057,-2.4048,-2.4068,-2.4073,-2.4078,-2.408,-2.396,-2.407,-2.407,-2.407,-2.4069,-2.4069,0,-2.3343,-2.338,-2.344,-2.3512,-2.3564,-2.3565,-2.3623,-2.3666,-2.3732,-2.3784,-2.3839,-2.392,-2.3987,-2.4034,-2.4102,-2.414,-2.4145,-2.4157,-2.4154,-2.4162,-2.4084,-2.4065,-2.4152,-2.4152,-2.4152,-2.4152,-2.4152,-2.4152,-2.34,-2.3479,-2.3501,-2.3602,-2.3639,-2.3711,-2.3744,-2.3789,-2.3831,-2.392,-2.3976,-2.4006,-2.4057,-2.4128,-2.419,-2.4202,-2.4226,-2.4238,-2.4251,-2.4177,-2.4168,-2.4159,-2.4142,-2.4243,-2.4243,-2.4324,-2.4325,-2.4325]}]]